Regional Weather Roundup
Issued by NWS

Home | Current Version | Previous Version | Text Only | Print | Product List | Glossary Off
Versions: 1 2 3 4 5 6 7 8 9 10 11 12 13 14 15 16 17 18 19 20 21 22 23 24 25 26 27 28

000
ASUS45 KPSR 270910
RWRAZ

ARIZONA HOURLY REGIONAL WEATHER ROUNDUP
NATIONAL WEATHER SERVICE PHOENIX AZ
200 AM MST FRI MAY 27 2016

NOTE: FAIR INDICATES FEW OR NO CLOUDS BELOW 12,000 FEET WITH NO
SIGNIFICANT WEATHER AND/OR OBSTRUCTIONS TO VISIBILITY.

AZZ001>003-036-271000-
NORTHWEST ARIZONA

CITY           SKY/WX    TMP DP  RH WIND       PRES   REMARKS
KINGMAN        CLEAR     56  28  34 CALM      29.93S
$$

AZZ004>008-015-016-018-271000-
NORTH CENTRAL ARIZONA

CITY           SKY/WX    TMP DP  RH WIND       PRES   REMARKS
GRAND CANYON   CLEAR     31  23  72 CALM      30.07S
WILLIAMS       CLEAR     34  27  75 S8        30.14F WCI  27
PRESCOTT       CLEAR     49  27  42 S7        30.01F
FLAGSTAFF      CLEAR     35  27  72 SW3       30.07F
PAYSON         CLEAR     48  27  43 CALM      30.03F
PAGE           CLEAR     60  35  39 W5        29.93F
$$

AZZ009>014-017-271000-
NORTHEAST ARIZONA

CITY           SKY/WX    TMP DP  RH WIND       PRES   REMARKS
WINSLOW        CLEAR     49  28  44 W9        29.98F
SAINT JOHNS    CLEAR     48  28  46 W7        29.99F
WINDOW ROCK    CLEAR     39  27  62 S6        30.01F WCI  35
SHOW LOW       CLEAR     45  25  45 S8        30.05F
$$

AZZ023-271000-
GREATER PHOENIX AREA

CITY           SKY/WX    TMP DP  RH WIND       PRES   REMARKS
PHOENIX        CLEAR     72  34  24 E8        29.82F
BUCKEYE        CLEAR     66  32  28 N6        29.85F
LUKE AFB       CLEAR     71  36  27 VRB2      29.82F
DEER VALLEY    CLEAR     68  31  25 CALM      29.85F
SCOTTSDALE     CLEAR     71  33  24 CALM      29.86F
MESA-GATEWAY   CLEAR     63  30  29 SE3       29.86F
$$

AZZ027-028-271000-
SOUTHWEST MARICOPA COUNTY AND PINAL COUNTY

CITY           SKY/WX    TMP DP  RH WIND       PRES   REMARKS
CASA GRANDE    CLEAR     63  25  23 CALM      29.87S
GILA BEND      FAIR      67  25  20 S7        29.83F
$$

AZZ503-504-507>509-271000-
SOUTHEAST ARIZONA

CITY           SKY/WX    TMP DP  RH WIND       PRES   REMARKS
TUCSON         CLEAR     62  27  26 S7        29.94F
DAVIS-MONTHAN  CLEAR     60  27  28 VRB5      29.92F
NOGALES        CLEAR     53  23  31 E7        29.98F
SIERRA VISTA   CLEAR     56  26  31 W9        30.02F
DOUGLAS        CLEAR     50  20  30 NW6       29.99F
SAFFORD        CLEAR     58  23  26 W5        29.91F
$$

AZZ020-021-025-026-031-271000-
SOUTHWEST ARIZONA

CITY           SKY/WX    TMP DP  RH WIND       PRES   REMARKS
YUMA           CLEAR     70  49  47 CALM      29.82F
$$

CAZ031-033-041-043-047-048-061-271000-
SOUTHERN CALIFORNIA

CITY           SKY/WX    TMP DP  RH WIND       PRES   REMARKS
DOWNTOWN L.A.  CLEAR     59  54  83 CALM      29.97F
L.A. AIRPORT   MOCLDY    59  54  83 W5        29.97F
SAN DIEGO      CLOUDY    65  55  70 SW5       29.99F
BURBANK        CLEAR     57  49  74 CALM      29.96F
ONTARIO        CLEAR     56  51  84 W3        29.97F
RIVERSIDE      CLEAR     59  52  77 W3        29.97F
PALM SPRINGS     N/A    N/A N/A N/A MISG      29.83F
EL CENTRO NAS  CLEAR     69  47  45 W8        29.82F
IMPERIAL       CLEAR     69  49  48 W8        29.80F
BLYTHE         CLEAR     72  48  42 S13       29.81S
NEEDLES        CLEAR     77  31  18 W7        29.79F
$$

NVZ020-UTZ003-271000-
SOUTHERN NEVADA-UTAH

CITY           SKY/WX    TMP DP  RH WIND       PRES   REMARKS
LAS VEGAS      PTCLDY    72  32  23 S3        29.81S
SALT LAKE CITY PTCLDY    55  40  56 SE7       29.95F
$$

NMZ009-TXZ055-271000-
NEW MEXICO-WEST TEXAS

CITY           SKY/WX    TMP DP  RH WIND       PRES   REMARKS
ALBUQUERQUE    PTCLDY    53  23  31 W3        29.92F
EL PASO        CLEAR     67  17  14 NW7       29.89F
$$


........................KEY........................
SKY/WX - SKY CONDITION/WEATHER
TMP    - TEMPERATURE IN FAHRENHEIT
DP     - DEW POINT IN FAHRENHEIT
RH     - RELATIVE HUMIDITY IN PERCENT
WIND   - DIRECTION AND SPEED IN MILES PER HOUR (MPH)
VRB    - VARIABLE WIND DIRECTION
PRES   - MEAN SEA LEVEL PRESSURE IN INCHES OF MERCURY
         F - FALLING PRESSURE   R - RISING PRESSURE
         S - STEADY PRESSURE
VSB    - VISIBILITY IN MILES
HX     - HEAT INDEX IN FAHRENHEIT
WCI    - WIND CHILL INDEX IN FAHRENHEIT
TC     - TEMPERATURE IN CELSIUS WHICH IS ALSO KNOWN AS
         TEMPERATURE IN CENTIGRADE
AFB    - AIR FORCE BASE
         LUKE AFB IS LUKE AIR FORCE BASE
         DAVIS-MONTHAN IS DAVIS-MONTHAN AIR FORCE BASE
NAS    - NAVAL AIR STATION
         EL CENTRO NAS IS EL CENTRO NAVAL AIR STATION
N/A    - NOT AVAILABLE





USA.gov is the U.S. government's official web portal to all federal, state and local government web resources and services.